Location: Tabor
(49.4170°N, 14.6670°E)
Time: 17:25:20
(UTC+01:00)

ISS - Pass Details

Date: 30 November 2023
Orbit: 414 x 417 km, 51.6° (Epoch: 23 February)

Event Time Altitude Azimuth Distance (km) Brightness Sun altitude
Rises 17:23:10 0° 286° (WNW) 2,378 1.0 -12.1°
Reaches altitude 10° 17:25:16 10° 288° (WNW) 1,515 -0.1 -12.4°
Maximum altitude 17:28:40 75° 14° (NNE) 446 -3.8 -13.0°
Enters shadow 17:30:46 22° 98° (E) 1,001 -2.4 -13.3°
